Voltar ao catálogo

COSMOS 1275 DEB

AtivoPO
NORAD 42198·DEBRIS·🇷🇺 Russia

Lançado Jun 4, 1981 de Plesetsk Cosmodrome

Loading…

Próximas Passagens (próximas 24 horas)

TLE

AtualizadoSource: Space-Track

Época: Sep 14, 2026, 03:55 UTC

1 42198U 81053TN  26257.16322442  .00000755  00000-0  58258-3 0  9995
2 42198  82.8026 207.9632 0042504 103.0297 257.5618 13.91218153649072

Acompanhe COSMOS 1275 DEB em tempo real com AllMySat

Download on the App Store